Weather History for Santorini Island, Greece

Change the Weather History Date:

Saturday, August 3, 2013

  Actual Average Record
Temperature  
Mean Temperature 80 °F -  
Max Temperature 86 °F 84 °F 93 °F (2006)
Min Temperature 75 °F 74 °F 71 °F (2007)
Cooling Degree Days 16    
Growing Degree Days 30 (Base 50)    
Moisture  
Dew Point 61 °F    
Average Humidity 53    
Maximum Humidity 69    
Minimum Humidity 37    
Precipitation  
Precipitation 0.00 in - - ()
Sea Level Pressure  
Sea Level Pressure 29.85 in    
Wind  
Wind Speed 11 mph ()    
Max Wind Speed 21 mph    
Max Gust Speed -    
Averages and records for this station are not official NWS values.
T = Trace of Precipitation, MM = Missing Value Source: Averaged Metar Reports

Daily Weather History Graph

Daily Weather History Graph

Search for Another Location

Airport:

Trip Planner

Search our weather history database for the weather conditions in past years. The results will help you decide how hot, cold, wet, or windy it might be!

Date:

Astronomy

Aug. 03, 2013 Rise Set
Actual Time 6:26 AM EEST 8:21 PM EEST
Civil Twilight 5:57 AM EEST 8:50 PM EEST
Nautical Twilight 5:23 AM EEST 9:24 PM EEST
Astronomical Twilight 4:46 AM EEST 10:00 PM EEST
Moon 3:20 AM EEST (8/3) 5:49 PM EEST (8/3)
Length of Visible Light 14h 52m
Length of Day
13h 55m
Waning Crescent, 11% of the Moon is Illuminated
Aug 3
Waning Crescent
Aug 7
New
Aug 14
First Quarter
Aug 21
Full
Aug 28
Last Quarter

Hourly Weather History & Observations

Time (EEST) Temp. Heat Index Dew Point Humidity Pressure Visibility Wind Dir Wind Speed Gust Speed Precip Events Conditions
12:20 AM 77.0 °F - 62.6 °F 61% 29.86 in - WNW 11.5 mph - N/A   Clear
12:50 AM 77.0 °F - 62.6 °F 61% 29.83 in - WNW 9.2 mph - N/A   Clear
1:20 AM 78.8 °F - 62.6 °F 57% 29.83 in - WNW 9.2 mph - N/A   Clear
1:50 AM 77.0 °F - 62.6 °F 61% 29.83 in - WNW 9.2 mph - N/A   Clear
2:20 AM 77.0 °F - 62.6 °F 61% 29.83 in - WNW 9.2 mph - N/A   Clear
2:50 AM 77.0 °F - 62.6 °F 61% 29.83 in - WNW 9.2 mph - N/A   Clear
3:20 AM 77.0 °F - 62.6 °F 61% 29.83 in - NW 11.5 mph - N/A   Clear
3:50 AM 77.0 °F - 62.6 °F 61% 29.83 in - NW 9.2 mph - N/A   Clear
4:20 AM 75.2 °F - 62.6 °F 65% 29.83 in - WNW 6.9 mph - N/A   Clear
4:50 AM 75.2 °F - 64.4 °F 69% 29.83 in - WNW 6.9 mph - N/A   Clear
5:20 AM 75.2 °F - 62.6 °F 65% 29.83 in - WNW 6.9 mph - N/A   Clear
5:50 AM 75.2 °F - 62.6 °F 65% 29.83 in - NW 6.9 mph - N/A   Clear
6:20 AM 75.2 °F - 64.4 °F 69% 29.83 in - WNW 9.2 mph - N/A   Clear
6:50 AM 75.2 °F - 62.6 °F 65% 29.83 in - NW 9.2 mph - N/A   Clear
7:20 AM 75.2 °F - 64.4 °F 69% 29.83 in - NW 9.2 mph - N/A   Clear
7:50 AM 77.0 °F - 62.6 °F 61% 29.83 in - NW 11.5 mph - N/A   Clear
8:20 AM 78.8 °F - 62.6 °F 57% 29.83 in - NW 11.5 mph - N/A   Clear
8:50 AM 80.6 °F 81.1 °F 59.0 °F 48% 29.83 in - NW 11.5 mph - N/A   Clear
9:20 AM 82.4 °F 82.9 °F 60.8 °F 48% 29.83 in - NW 11.5 mph - N/A   Clear
9:50 AM 82.4 °F 82.5 °F 59.0 °F 45% 29.83 in - NNW 15.0 mph - N/A   Clear
10:20 AM 82.4 °F 82.0 °F 57.2 °F 42% 29.86 in - NNW 16.1 mph - N/A   Clear
10:50 AM 84.2 °F 83.8 °F 59.0 °F 42% 29.86 in - NNW 15.0 mph - N/A   Clear
11:20 AM 82.4 °F 82.9 °F 60.8 °F 48% 29.86 in - NW 17.3 mph - N/A   Clear
11:50 AM 84.2 °F 83.8 °F 59.0 °F 42% 29.86 in - NNW 16.1 mph - N/A   Clear
12:20 PM 84.2 °F 84.4 °F 60.8 °F 45% 29.86 in - North 16.1 mph - N/A   Clear
12:50 PM 82.4 °F 82.9 °F 60.8 °F 48% 29.86 in - NNW 17.3 mph - N/A   Clear
1:20 PM 84.2 °F 83.8 °F 59.0 °F 42% 29.86 in - North 18.4 mph - N/A   Clear
1:50 PM 84.2 °F 83.8 °F 59.0 °F 42% 29.86 in - NNW 16.1 mph - N/A   Clear
2:20 PM 86.0 °F 85.4 °F 59.0 °F 40% 29.86 in - NNW 16.1 mph - N/A   Clear
2:50 PM 86.0 °F 84.9 °F 57.2 °F 37% 29.86 in - NNW 18.4 mph - N/A   Clear
3:20 PM 86.0 °F 84.9 °F 57.2 °F 37% 29.86 in - NNW 15.0 mph - N/A   Clear
3:50 PM 84.2 °F 83.5 °F 57.2 °F 40% 29.86 in - North 15.0 mph - N/A   Clear
4:20 PM 84.2 °F 85.0 °F 62.6 °F 48% 29.86 in - NNW 17.3 mph - N/A   Clear
4:50 PM 84.2 °F 84.4 °F 60.8 °F 45% 29.86 in - NNW 16.1 mph - N/A   Clear
5:20 PM 82.4 °F 83.4 °F 62.6 °F 51% 29.86 in - North 15.0 mph - N/A   Clear
5:50 PM 82.4 °F 83.4 °F 62.6 °F 51% 29.86 in - NNW 19.6 mph - N/A   Clear
6:20 PM 80.6 °F 81.8 °F 62.6 °F 54% 29.86 in - NNW 18.4 mph - N/A   Clear
6:50 PM 80.6 °F 81.8 °F 62.6 °F 54% 29.86 in - NNW 18.4 mph - N/A   Clear
7:20 PM 80.6 °F 81.8 °F 62.6 °F 54% 29.86 in - NNW 20.7 mph - N/A   Clear
7:50 PM 80.6 °F 81.5 °F 60.8 °F 51% 29.83 in - NW 20.7 mph - N/A   Clear
8:20 PM 78.8 °F - 62.6 °F 57% 29.86 in - NNW 18.4 mph - N/A   Clear
8:50 PM 78.8 °F - 60.8 °F 54% 29.86 in - NW 19.6 mph - N/A   Clear
9:20 PM 80.6 °F 81.1 °F 59.0 °F 48% 29.86 in - NNW 16.1 mph - N/A   Clear
9:50 PM 80.6 °F 81.1 °F 59.0 °F 48% 29.86 in - NNW 17.3 mph - N/A   Clear
10:20 PM 80.6 °F 81.1 °F 59.0 °F 48% 29.86 in - NW 11.5 mph - N/A   Clear
10:50 PM 78.8 °F - 59.0 °F 51% 29.86 in - NW 6.9 mph - N/A   Clear
11:20 PM 77.0 °F - 59.0 °F 54% 29.86 in - WNW 4.6 mph - N/A   Clear
11:50 PM 77.0 °F - 60.8 °F 57% 29.86 in - WNW 9.2 mph - N/A   Clear